Preview of NWS' New Version of Forecast
This preview is not operational and should not be used for support decisions.

Regional Weather Roundup (RWR)

Issued by National Weather Service (NWS)

                            
000
ASUS44 KJAN 200510
RWRMS 

MISSISSIPPI HOURLY WEATHER ROUNDUP
NATIONAL WEATHER SERVICE JACKSON MS
1200 AM CDT MON MAY 20 2019

NOTE: "FAIR: INDICATES FEW OR NO CLOUDS BELOW 12,000 FEET WITH NO
SIGNIFICANT WEATHER AND/OR OBSTRUCTIONS TO VISIBILITY.

MSZ001>002-007>008-010>013-018>021-025>028-034>036-200600-
NORTHWEST MISSISSIPPI
  
CITY           SKY/WX    TMP DP  RH WIND       PRES   REMARKS
BATESVILLE       N/A     66  64  94 CALM      29.98R                  
CLARKSDALE     CLOUDY    68  68 100 CALM      29.97S                  
CLEVELAND      FAIR      69  69 100 SE3       29.97S                  
GREENWOOD      FAIR      70  68  93 CALM      29.98S                  
GREENVILLE     FAIR      73  69  87 SE6       29.96S                  
OLIVE BRANCH   CLEAR     68 N/A N/A S5        29.96S HAZE             
OXFORD         FAIR      68  66  94 CALM      29.99S                  
TUNICA           N/A     68  64  88 CALM      29.98R                  
WINONA         FAIR      69  69 100 CALM      29.99F                  
$$

MSZ003>006-009-014>017-022>024-029>033-037>039-200600-
NORTHEAST MISSISSIPPI
  
CITY           SKY/WX    TMP DP  RH WIND       PRES   REMARKS
ABERDEEN       MOCLDY    68  68 100 S7        30.01S                  
COLUMBUS AFB   FAIR      69  67  93 S5        30.00F                  
CORINTH        FAIR      72  68  88 S5        29.97S                  
GOLDN TRIANGLE FAIR      68  67  96 S7        30.01S                  
STARKVILLE     FAIR      66  64  94 CALM      30.02S                  
TUPELO         FAIR      69  65  86 S7        29.98F                  
$$

MSZ040-058-200600-
CENTRAL MISSISSIPPI
  
CITY           SKY/WX    TMP DP  RH WIND       PRES   REMARKS
JACKSON INTL   FAIR      71  68  90 S5        29.99R                  
JACKSON HAWKNS FAIR      72  70  93 SE6       30.00R                  
MADISON        FAIR      70  70 100 CALM      29.99S                  
MERIDIAN KEY   CLOUDY    68  66  93 CALM      30.02S                  
MERIDIAN NAS   FAIR      69  67  93 SW3       30.02R                  
RAYMOND        FAIR      72  72 100 CALM      29.98S                  
VICKSBURG VKS  CLOUDY    72  72 100 CALM      29.97F                  
$$

MSZ059>079-200600-
SOUTH MISSISSIPPI
  
CITY           SKY/WX    TMP DP  RH WIND       PRES   REMARKS
BROOKHAVEN     CLOUDY    70  68  94 CALM      30.02S                  
HATTIESBURG    FAIR      67  66  97 CALM      30.03R                  
LAUREL         CLEAR     69  67  94 S3        30.03R                  
MCCOMB         FAIR      69  67  93 SE3       30.00S FOG              
NATCHEZ        FAIR      69  68  96 CALM      29.99R                  
PINE BELT      FAIR      67  66  97 CALM      30.03S                  
$$

MSZ080>082-200600-
COASTAL MISSISSIPPI
  
CITY           SKY/WX    TMP DP  RH WIND       PRES   REMARKS
BILOXI         FAIR      72  70  95 CALM      30.00R                  
PASCAGOULA     MOCLDY    69  66  90 CALM      30.01S FOG              
GULFPORT       FAIR      69  67  93 CALM      30.00R                  
$$

LAZ007>009-015>016-023>026-200600-
NORTHEAST LOUISIANA
  
CITY           SKY/WX    TMP DP  RH WIND       PRES   REMARKS
BASTROP        FAIR      74  73  98 S3        29.95F                  
TALLULAH/VBURG FAIR      72  71  97 CALM      29.96F                  
VIDALIA        FAIR      72  70  95 E3        29.97R                  
$$